MDT,Max TemperatureF,Mean TemperatureF,Min TemperatureF,Max Dew PointF,MeanDew PointF,Min DewpointF,Max Humidity, Mean Humidity, Min Humidity, Max Sea Level PressureIn, Mean Sea Level PressureIn, Min Sea Level PressureIn, Max VisibilityMiles, Mean VisibilityMiles, Min VisibilityMiles, Max Wind SpeedMPH, Mean Wind SpeedMPH, Max Gust SpeedMPH,PrecipitationIn, CloudCover, Events, WindDirDegrees
2011-9-1,67,59,50,59,54,50,100,82,63,30.03,29.88,29.62,10,10,8,23,12,29,0.07,6,Rain,315
2011-9-2,78,61,43,56,49,43,100,67,33,30.03,29.93,29.82,10,10,10,29,10,37,0.01,1,,244
2011-9-3,67,56,44,45,40,37,86,62,37,30.27,30.14,29.99,10,10,10,24,15,32,0.00,2,,310
2011-9-4,70,54,37,43,39,36,85,58,31,30.32,30.22,30.09,10,10,10,14,6,20,0.00,0,,194
2011-9-5,86,67,48,46,43,38,72,45,18,30.06,29.92,29.84,10,10,10,17,10,23,0.00,0,,174
2011-9-6,87,66,45,50,44,40,86,53,19,30.14,30.02,29.88,10,10,10,14,6,17,0.00,0,,326
2011-9-7,83,67,50,53,47,43,80,52,24,30.29,30.24,30.14,10,10,10,12,6,17,0.00,0,,16
2011-9-8,84,66,47,54,48,42,89,56,23,30.31,30.25,30.19,10,10,10,16,9,21,0.00,0,,152
2011-9-9,84,66,48,49,47,45,86,57,28,30.21,30.16,30.12,10,10,10,12,6,17,0.00,0,,139
2011-9-10,85,67,49,50,46,41,83,53,23,30.14,30.07,30.01,10,10,10,10,4,14,0.00,0,,187
2011-9-11,87,67,47,51,44,40,86,53,19,29.99,29.89,29.77,10,10,10,14,4,17,0.00,0,,201
2011-9-12,64,52,39,48,43,38,89,69,49,30.15,30.00,29.74,10,10,8,26,9,35,0.00,2,,323
2011-9-13,66,52,37,47,39,29,92,64,36,30.34,30.20,30.14,10,10,8,21,9,25,0.01,4,Rain,323
2011-9-14,56,44,32,30,25,21,75,51,26,30.47,30.40,30.35,10,10,10,16,7,20,0.00,0,,69
2011-9-15,55,44,32,38,32,24,82,63,44,30.34,30.17,29.98,10,10,10,33,20,41,0.00,4,,154
2011-9-16,64,53,42,45,42,38,93,73,52,29.99,29.91,29.84,10,10,10,24,17,31,0.00,4,,156
2011-9-17,58,52,46,52,48,43,100,89,77,29.91,29.85,29.82,10,6,2,21,7,24,0.01,7,Rain,182
2011-9-18,70,56,41,43,35,31,93,58,23,30.06,29.99,29.92,10,10,10,26,12,35,0.00,2,,273
2011-9-19,78,60,42,52,41,34,93,60,26,30.02,29.86,29.70,10,10,5,40,14,48,0.28,2,Rain,243
2011-9-20,58,51,44,47,44,42,93,77,61,30.15,29.96,29.73,10,9,2,40,22,52,0.28,7,Rain,305
2011-9-21,59,47,35,45,41,32,96,72,47,30.26,30.22,30.14,10,10,8,15,7,18,0.00,5,,332
2011-9-22,70,52,33,42,38,31,100,67,33,30.21,30.09,29.99,10,10,10,16,11,21,0.00,0,,176
2011-9-23,87,66,44,46,41,38,77,48,19,29.99,29.93,29.88,10,10,10,9,8,10,0.00,0,,273
2011-9-24,87,69,50,52,47,44,77,51,25,29.92,29.87,29.83,10,10,6,12,6,14,0.00,0,,275
2011-9-25,85,67,48,51,47,41,86,58,29,29.82,29.77,29.72,10,10,10,20,8,25,0.00,0,,158
2011-9-26,80,64,48,47,42,39,71,51,30,29.97,29.87,29.77,10,10,10,21,11,24,0.00,0,,222
2011-9-27,88,65,42,45,41,37,82,50,18,30.01,29.91,29.83,10,10,10,16,6,20,0.00,0,,241
2011-9-28,77,61,45,44,38,32,71,47,23,30.18,29.97,29.80,10,10,10,26,12,35,0.00,0,,303
2011-9-29,64,50,35,37,34,31,82,58,34,30.40,30.34,30.21,10,10,10,22,10,28,0.00,0,,316
2011-9-30,74,55,35,37,34,31,89,56,22,30.30,30.08,29.93,10,10,10,28,16,35,0.00,0,,162